TimeMDT,TemperatureF,Dew PointF,Humidity,Sea Level PressureIn,VisibilityMPH,Wind Direction,Wind SpeedMPH,Gust SpeedMPH,PrecipitationIn,Events,Conditions,WindDirDegrees,DateUTC
12:52 AM,43.0,21.0,42,29.91,10.0,SW,10.4,-,N/A,,Clear,220,2013-03-28 06:52:00
1:52 AM,42.1,21.9,45,29.91,10.0,SW,11.5,-,N/A,,Clear,220,2013-03-28 07:52:00
2:52 AM,41.0,23.0,49,29.90,10.0,SW,9.2,-,N/A,,Clear,230,2013-03-28 08:52:00
3:52 AM,37.0,21.9,54,29.92,10.0,SSW,6.9,-,N/A,,Clear,200,2013-03-28 09:52:00
4:52 AM,39.0,23.0,53,29.91,10.0,WSW,11.5,-,N/A,,Clear,240,2013-03-28 10:52:00
5:52 AM,37.0,23.0,57,29.93,10.0,WSW,8.1,-,N/A,,Clear,240,2013-03-28 11:52:00
6:52 AM,37.0,23.0,57,29.94,10.0,South,5.8,-,N/A,,Clear,180,2013-03-28 12:52:00
7:52 AM,39.0,23.0,53,29.97,10.0,WSW,13.8,-,N/A,,Clear,240,2013-03-28 13:52:00
8:52 AM,44.1,25.0,47,29.98,10.0,SSW,10.4,-,N/A,,Clear,200,2013-03-28 14:52:00
9:52 AM,53.1,25.0,34,29.98,10.0,SSW,12.7,-,N/A,,Clear,200,2013-03-28 15:52:00
10:52 AM,57.9,26.1,30,29.99,10.0,SSW,12.7,-,N/A,,Clear,200,2013-03-28 16:52:00
11:52 AM,62.1,28.0,28,29.99,10.0,South,13.8,-,N/A,,Clear,190,2013-03-28 17:52:00
12:52 PM,64.0,26.1,24,29.96,10.0,SSW,12.7,23.0,N/A,,Partly Cloudy,200,2013-03-28 18:52:00
1:52 PM,64.9,24.1,21,29.94,10.0,SSW,16.1,24.2,N/A,,Partly Cloudy,210,2013-03-28 19:52:00
2:52 PM,66.0,24.1,20,29.93,10.0,SW,16.1,26.5,N/A,,Clear,220,2013-03-28 20:52:00
3:52 PM,66.9,21.9,18,29.91,10.0,SSW,15.0,20.7,N/A,,Mostly Cloudy,210,2013-03-28 21:52:00
4:03 PM,68.0,21.2,17,30.00,10.0,SW,18.4,24.2,N/A,,Scattered Clouds,230,2013-03-28 22:03:00
4:52 PM,64.9,19.0,17,29.90,10.0,SW,19.6,24.2,N/A,,Clear,230,2013-03-28 22:52:00
5:52 PM,66.9,18.0,15,29.91,10.0,SSW,18.4,24.2,N/A,,Clear,210,2013-03-28 23:52:00
6:52 PM,64.0,19.9,18,29.91,10.0,SW,17.3,-,N/A,,Clear,220,2013-03-29 00:52:00
7:52 PM,57.0,21.9,26,29.94,10.0,SSW,10.4,-,N/A,,Clear,200,2013-03-29 01:52:00
8:52 PM,53.1,21.0,29,29.97,10.0,SSW,12.7,-,N/A,,Partly Cloudy,200,2013-03-29 02:52:00
9:52 PM,52.0,23.0,32,29.97,10.0,South,11.5,-,N/A,,Clear,180,2013-03-29 03:52:00
10:52 PM,52.0,24.1,34,29.98,10.0,South,15.0,-,N/A,,Clear,190,2013-03-29 04:52:00
11:52 PM,50.0,25.0,38,29.99,10.0,South,13.8,-,N/A,,Clear,190,2013-03-29 05:52:00